SL-12 R/B(2), 19400

Orbit data source: Space-Track

SL-12 R/B(2), 19400 is space debris in GEO originally from a launch on Thu, 18 Aug 1988 UTC launched from the Tyuratam Missile And Space Complex (TTMTR). Debris objects in space refer to the collection of defunct objects orbiting the Earth. Examples of debris include non-operational satellites, rocket bodies, and fragments generated from explosions, collisions, or faulty payload assembly.

Not visible in the next 10 days
Identifier
19400, 1988-071D
Orbit
GEO
Country
Flag of CISCIS
Related business
Manufacturer
NPO Energiya
Mission
Spacecraft
Bus & Motor
BLOK DM, Unknown motor
Mass
2,440 kg wet, 2,440 kg dry
Launch date (UTC)
1988-08-18 (38 years ago)
Launch vehicle
Unknown
Launch site
Tyuratam Missile And Space Complex (TTMTR)
Object type
Payload
Rocket body
Debris
Shape & HBR
Cyl, 3.1 m
Radar Cross Section
23.597 m², Large (>1 m²)

Expand to show TLE details & history
Last TLE update: 7 hours ago

TLE from 7 hours ago
0 SL-12 R/B(2)
1 19400U 88071D   26151.45279139 -.00000363  00000-0  00000+0 0  9995
2 19400  11.2769 329.1753 0018753 241.0005 317.5229  1.00548229132532
Epoch: 2026-05-31T10:52Z
TLE epoch observation values (Epoch: 2026-05-31T10:52:01.176Z)
Latitude
-3.54936°
Longitude
115.24713°
Altitude
35,651.405 km
Speed
3.082 km/s
True Right ascension
11h 08m 49s
True Declination
-3° 32' 45"
Sunlit
Object was in daylight at epoch
Visualization orbit readout
Latitude
Unknown
Longitude
Unknown
Altitude
Unknown
Speed
Unknown
Apparent Right ascension
Unknown
Apparent Declination
Unknown
Sunlit
N/A
Visualization observer readout
Local Sidereal Time
03:25:32
Azimuth
Unknown
Elevation
Unknown
Doppler factor
Unknown
Orbital elements
Apogee altitude
35,789.216 km
Perigee altitude
35,631.359 km
Semi-major axis
42,088.425 km
Eccentricity
0.00188
Inclination
11.2769°
RAAN
329.1753°
Arg. of periapsis
241.0005°
True anomaly
317.37753°
Mean anomaly
317.5229°
Eccentric anomaly
317.45024°
Mean motion
0.25136 °/min
Orbital period
1,432.2 mins
BSTAR
0
Loading maneuver chart data...
Computing Atmospheric mass density...
Loading historical data...
Loading historical data...
Loading historical data...
Loading historical data...
Loading historical data...
Loading historical data...
Loading historical data...

Documentation

Showing up to 5 results
|